Home > Weather > Meschede > Past weeks

Flag for Germany Weather for the Past 2 Weeks in Meschede, North Rhine-Westphalia, Germany

Now
34 °F

Rain. Partly cloudy.


Feels Like: 29 °F
Forecast: 29 / 34 °F
Wind: 6 mph from East

Location: Paderborn / Lippstadt

Current Time: Feb 14, 2016 at 5:45:59 AM

Latest Report: Feb 14, 2016 at 4:50 AM


Visibility: 6 mi

Pressure: 29.03 "Hg

Humidity: 93%

Dew point: 32 °F

Location of MeschedeLocation

Historic Weather in Meschede — Graph

°F

Meschede Temperature Yesterday

Maximum temperature yesterday: 41 °F (at 1:50 PM)
Minimum temperature yesterday: 27 °F (at 4:50 AM)
Average temperature yesterday: 33 °F

High & Low Weather Summary for the Past Weeks

 TemperatureHumidityPressure
High52 °F (Feb 6, 11:50 AM)100% (Jan 30, 8:50 PM)30.27 "Hg (Jan 30, 8:50 PM)
Low27 °F (Feb 13, 4:50 AM)53% (Feb 3, 3:20 PM)28.82 "Hg (Feb 9, 5:50 PM)
Average40 °F81%29.68 "Hg
* Reported Jan 30 3:20 AM — Feb 14 3:50 AM, Meschede, Weather by CustomWeather, © 2016

Note: Actual official high and low records may vary slightly from our data, if they occured in-between our weather recording intervals... More about our weather records

Advertising

Meschede Weather History for the Previous 24 Hours

 ConditionsComfort  
Time TempWeatherWind HumidityBarometerVisibility
3:50 AM
Sun, Feb 14
34 °FRain. Passing clouds.7 mph93%29.03 "Hg6 mi
3:20 AM34 °FLight rain. Passing clouds.7 mph100%29.03 "Hg6 mi
2:50 AM36 °FLight rain. Passing clouds.9 mph93%29.03 "Hg6 mi
2:20 AM36 °FLight rain. Passing clouds.8 mph93%29.03 "Hg6 mi
1:50 AM36 °FLight rain. Passing clouds.8 mph87%29.03 "Hg6 mi
1:20 AM36 °FLight rain. Passing clouds.12 mph87%29.03 "Hg6 mi
12:50 AM36 °FLight rain. Passing clouds.12 mph87%29.03 "Hg6 mi
12:20 AM36 °FLight rain. Passing clouds.9 mph87%29.06 "Hg6 mi
11:50 PM
Sat, Feb 13
34 °FLight rain. Passing clouds.9 mph93%29.06 "Hg6 mi
11:20 PM34 °FLight rain. Passing clouds.9 mph93%29.06 "Hg6 mi
10:50 PM34 °FLight rain. Passing clouds.12 mph93%29.06 "Hg6 mi
9:50 PM34 °FLight rain. Partly cloudy.12 mph93%29.09 "Hg6 mi
9:20 PM34 °FLight rain. Partly cloudy.12 mph87%29.09 "Hg6 mi
8:50 PM34 °FPartly cloudy.12 mph87%29.09 "Hg6 mi
8:20 PM34 °FPartly cloudy.12 mph87%29.12 "Hg6 mi
7:50 PM34 °FPassing clouds.12 mph87%29.12 "Hg6 mi
7:20 PM34 °FPassing clouds.10 mph87%29.12 "Hg6 mi
6:50 PM34 °FPartly cloudy.13 mph87%29.12 "Hg6 mi
6:20 PM34 °FPartly cloudy.12 mph87%29.15 "Hg6 mi
5:50 PM37 °FLight rain. Partly cloudy.14 mph70%29.15 "Hg6 mi
5:20 PM37 °FScattered clouds.12 mph70%29.15 "HgN/A
4:50 PM37 °FScattered clouds.10 mph65%29.15 "HgN/A
4:20 PM39 °FSunny.13 mph61%29.18 "Hg10 mi
3:50 PM39 °FSunny.13 mph61%29.18 "Hg10 mi
3:20 PM39 °FSunny.13 mph61%29.18 "Hg10 mi
2:50 PM39 °FSunny.10 mph61%29.21 "Hg10 mi
2:20 PM39 °FSunny.13 mph61%29.21 "Hg10 mi
1:50 PM41 °FPassing clouds.13 mph61%29.21 "HgN/A
1:20 PM39 °FSunny.10 mph61%29.24 "Hg10 mi
12:50 PM39 °FPassing clouds.8 mph61%29.24 "HgN/A
12:20 PM37 °FSunny.9 mph70%29.27 "Hg10 mi
11:50 AM37 °FPassing clouds.9 mph70%29.27 "HgN/A
11:20 AM36 °FPassing clouds.8 mph70%29.27 "HgN/A
10:50 AM34 °FPassing clouds.8 mph75%29.30 "HgN/A
10:20 AM34 °FSunny.9 mph75%29.30 "Hg10 mi
9:50 AM34 °FSunny.7 mph75%29.33 "Hg10 mi
9:20 AM32 °FSunny.6 mph80%29.33 "Hg10 mi
8:50 AM30 °FSunny.6 mph86%29.33 "Hg10 mi
8:20 AM30 °FPassing clouds.5 mph80%29.36 "HgN/A
7:50 AM30 °FPassing clouds.5 mph86%29.36 "HgN/A
7:20 AM28 °FClear.5 mph86%29.36 "Hg10 mi
6:50 AM28 °FClear.7 mph86%29.36 "Hg10 mi
6:20 AM28 °FClear.7 mph93%29.36 "Hg10 mi
5:50 AM28 °FClear.7 mph86%29.36 "Hg10 mi
5:20 AM27 °FClear.7 mph93%29.39 "Hg10 mi
Weather by CustomWeather, © 2016

See weather overviewHow to use our weather pages